QPF
0.01 0.01 0.01 0.02 0.02 0.02 0.03 0.03 0.02 0.01 0.02 0.03 0.02 0.01 0.01 0.00 0.01 0.01 0.02 0.04 0.08 0.15 0.19 0.18 0.18 0.14 0.11 0.08 0.07 0.08 0.07 0.06 0.06 0.05 0.04 0.04 0.05 0.05 0.05 0.06 0.05 0.04 0.04
0.02 0.01 0.02 0.02 0.02 0.03 0.04 0.05 0.03 0.01 0.02 0.02 0.02 0.01 0.01 0.00 0.00 0.01 0.02 0.03 0.04 0.08 0.17 0.18 0.14 0.12 0.10 0.09 0.07 0.07 0.06 0.05 0.05 0.04 0.04 0.03 0.05 0.04 0.04 0.05 0.06 0.05 0.04
0.02 0.01 0.02 0.03 0.03 0.03 0.04 0.05 0.04 0.02 0.02 0.02 0.02 0.02 0.01 0.01 0.00 0.00 0.00 0.01 0.03 0.05 0.09 0.18 0.17 0.14 0.14 0.13 0.09 0.08 0.07 0.06 0.05 0.05 0.04 0.04 0.04 0.05 0.05 0.05 0.05 0.06 0.04
0.02 0.02 0.02 0.04 0.04 0.03 0.02 0.03 0.02 0.03 0.02 0.02 0.04 0.03 0.03 0.02 0.02 0.01 0.01 0.01 0.01 0.03 0.04 0.11 0.15 0.11 0.11 0.13 0.12 0.09 0.07 0.07 0.06 0.05 0.05 0.06 0.06 0.05 0.06 0.07 0.06 0.06 0.04
0.03 0.03 0.04 0.06 0.05 0.03 0.03 0.03 0.03 0.03 0.03 0.04 0.05 0.04 0.04 0.03 0.02 0.01 0.01 0.01 0.01 0.01 0.02 0.04 0.05 0.06 0.07 0.09 0.13 0.12 0.09 0.08 0.07 0.06 0.06 0.07 0.09 0.07 0.06 0.08 0.09 0.07 0.05
0.03 0.03 0.04 0.06 0.06 0.05 0.04 0.04 0.03 0.03 0.03 0.04 0.03 0.02 0.02 0.02 0.02 0.02 0.01 0.01 0.01 0.01 0.01 0.02 0.03 0.03 0.04 0.07 0.13 0.16 0.15 0.12 0.10 0.10 0.07 0.07 0.09 0.09 0.07 0.07 0.09 0.08 0.06
0.03 0.03 0.04 0.05 0.06 0.05 0.05 0.05 0.03 0.03 0.03 0.03 0.03 0.01 0.01 0.01 0.01 0.01 0.01 0.01 0.01 0.01 0.01 0.01 0.01 0.01 0.02 0.05 0.08 0.11 0.13 0.14 0.13 0.14 0.11 0.10 0.09 0.09 0.08 0.08 0.08 0.08 0.07
0.02 0.03 0.05 0.05 0.05 0.04 0.04 0.05 0.05 0.04 0.03 0.03 0.02 0.02 0.01 0.01 0.01 0.01 0.01 0.01 0.01 0.01 0.01 0.01 0.01 0.01 0.01 0.01 0.03 0.08 0.10 0.12 0.14 0.15 0.14 0.13 0.11 0.09 0.09 0.08 0.07 0.07 0.07
0.03 0.04 0.07 0.08 0.07 0.05 0.03 0.04 0.04 0.05 0.04 0.03 0.02 0.01 0.01 0.01 0.01 0.02 0.02 0.01 0.01 0.02 0.02 0.02 0.02 0.01 0.01 0.01 0.02 0.04 0.07 0.07 0.10 0.12 0.14 0.17 0.17 0.15 0.12 0.10 0.08 0.07 0.07
0.03 0.03 0.07 0.11 0.10 0.07 0.03 0.03 0.04 0.04 0.04 0.04 0.03 0.03 0.02 0.02 0.02 0.02 0.02 0.02 0.02 0.02 0.02 0.02 0.02 0.02 0.02 0.01 0.03 0.03 0.04 0.05 0.06 0.06 0.06 0.06 0.07 0.09 0.12 0.13 0.12 0.11 0.09
0.04 0.03 0.06 0.07 0.06 0.05 0.05 0.04 0.03 0.04 0.04 0.04 0.04 0.04 0.04 0.04 0.03 0.03 0.02 0.02 0.02 0.02 0.02 0.02 0.02 0.02 0.02 0.02 0.02 0.03 0.04 0.09 0.06 0.05 0.05 0.05 0.05 0.06 0.07 0.10 0.12 0.13 0.13
0.04 0.03 0.03 0.03 0.04 0.04 0.05 0.04 0.03 0.03 0.03 0.04 0.04 0.04 0.05 0.04 0.03 0.02 0.02 0.01 0.01 0.01 0.01 0.01 0.01 0.01 0.01 0.02 0.02 0.03 0.04 0.07 0.06 0.04 0.03 0.05 0.07 0.06 0.06 0.07 0.10 0.12 0.14
0.03 0.03 0.02 0.03 0.03 0.03 0.04 0.05 0.04 0.03 0.03 0.03 0.03 0.03 0.04 0.04 0.03 0.03 0.02 0.01 0.01 0.00 0.00 0.01 0.01 0.01 0.01 0.02 0.02 0.03 0.03 0.04 0.04 0.03 0.04 0.04 0.05 0.05 0.04 0.04 0.06 0.08 0.10
0.02 0.03 0.02 0.03 0.03 0.03 0.03 0.04 0.04 0.02 0.02 0.02 0.01 0.01 0.02 0.03 0.04 0.04 0.04 0.04 0.02 0.01 0.01 0.01 0.01 0.01 0.01 0.02 0.03 0.03 0.03 0.02 0.02 0.02 0.03 0.03 0.04 0.05 0.04 0.03 0.03 0.04 0.06
0.03 0.03 0.02 0.02 0.03 0.03 0.03 0.04 0.04 0.02 0.02 0.02 0.01 0.01 0.02 0.02 0.03 0.04 0.06 0.05 0.05 0.03 0.02 0.01 0.01 0.01 0.01 0.02 0.02 0.02 0.02 0.02 0.02 0.02 0.01 0.02 0.02 0.03 0.03 0.03 0.02 0.03 0.03
0.04 0.03 0.03 0.02 0.03 0.03 0.02 0.03 0.03 0.03 0.02 0.02 0.02 0.02 0.02 0.03 0.05 0.06 0.06 0.05 0.04 0.04 0.03 0.02 0.02 0.03 0.03 0.03 0.03 0.02 0.02 0.02 0.01 0.01 0.01 0.01 0.01 0.01 0.03 0.02 0.01 0.01 0.02
0.04 0.03 0.03 0.03 0.03 0.04 0.02 0.02 0.02 0.03 0.03 0.02 0.03 0.03 0.04 0.05 0.05 0.05 0.04 0.03 0.03 0.03 0.03 0.02 0.03 0.04 0.03 0.03 0.03 0.02 0.02 0.01 0.01 0.01 0.01 0.00 0.00 0.01 0.01 0.01 0.00 0.01 0.01
0.05 0.05 0.06 0.06 0.05 0.06 0.04 0.03 0.03 0.04 0.04 0.03 0.03 0.03 0.04 0.05 0.04 0.03 0.03 0.02 0.02 0.02 0.03 0.03 0.03 0.02 0.02 0.02 0.03 0.03 0.02 0.02 0.01 0.01 0.01 0.01 0.00 0.01 0.01 0.01 0.01 0.01 0.01
0.04 0.05 0.05 0.05 0.06 0.07 0.06 0.05 0.04 0.05 0.04 0.04 0.04 0.03 0.03 0.04 0.03 0.02 0.02 0.02 0.02 0.03 0.03 0.03 0.02 0.02 0.02 0.02 0.02 0.02 0.02 0.02 0.01 0.01 0.01 0.01 0.01 0.01 0.01 0.01 0.01 0.01 0.01
0.03 0.04 0.05 0.05 0.05 0.05 0.06 0.05 0.05 0.05 0.04 0.04 0.03 0.03 0.02 0.02 0.03 0.03 0.03 0.02 0.03 0.03 0.04 0.03 0.02 0.02 0.02 0.02 0.01 0.01 0.01 0.01 0.01 0.01 0.02 0.02 0.02 0.02 0.02 0.02 0.02 0.01 0.01
0.02 0.03 0.04 0.05 0.05 0.04 0.04 0.04 0.05 0.05 0.05 0.04 0.03 0.02 0.02 0.02 0.02 0.03 0.03 0.03 0.04 0.05 0.05 0.04 0.04 0.03 0.03 0.02 0.02 0.01 0.02 0.02 0.02 0.02 0.02 0.02 0.03 0.03 0.02 0.02 0.03 0.02 0.01
0.02 0.02 0.03 0.02 0.03 0.03 0.03 0.04 0.04 0.04 0.04 0.04 0.03 0.02 0.02 0.03 0.03 0.03 0.03 0.05 0.06 0.06 0.05 0.05 0.05 0.04 0.03 0.02 0.02 0.03 0.03 0.03 0.03 0.04 0.04 0.04 0.04 0.05 0.04 0.03 0.03 0.02 0.02
0.02 0.01 0.01 0.02 0.01 0.02 0.02 0.02 0.03 0.03 0.03 0.03 0.03 0.03 0.02 0.02 0.03 0.02 0.02 0.02 0.04 0.05 0.06 0.05 0.05 0.05 0.05 0.04 0.03 0.02 0.02 0.03 0.03 0.04 0.05 0.05 0.06 0.07 0.07 0.06 0.06 0.04 0.03
0.01 0.01 0.01 0.01 0.02 0.01 0.02 0.01 0.02 0.02 0.02 0.02 0.03 0.03 0.03 0.03 0.03 0.03 0.02 0.01 0.01 0.01 0.02 0.03 0.04 0.04 0.04 0.05 0.05 0.05 0.04 0.04 0.03 0.03 0.03 0.04 0.05 0.06 0.06 0.06 0.08 0.07 0.06
0.02 0.01 0.01 0.01 0.02 0.03 0.03 0.03 0.03 0.02 0.03 0.02 0.03 0.03 0.03 0.03 0.03 0.03 0.03 0.02 0.01 0.01 0.01 0.03 0.04 0.04 0.05 0.05 0.06 0.06 0.05 0.05 0.04 0.03 0.03 0.04 0.05 0.05 0.05 0.05 0.05 0.06 0.07
0.03 0.03 0.03 0.02 0.02 0.02 0.03 0.03 0.03 0.03 0.02 0.02 0.03 0.02 0.02 0.02 0.02 0.02 0.02 0.02 0.03 0.02 0.02 0.02 0.02 0.02 0.03 0.04 0.04 0.04 0.03 0.04 0.05 0.05 0.04 0.04 0.05 0.04 0.04 0.04 0.04 0.05 0.05
MSLP
1013.01 1013.04 1013.00 1012.89 1012.75 1012.60 1012.51 1012.48 1012.53 1012.65 1012.82 1013.00 1013.17 1013.31 1013.41 1013.49 1013.55 1013.61 1013.69 1013.80 1013.92 1014.04 1014.14 1014.22 1014.26 1014.27 1014.25 1014.21 1014.17 1014.12 1014.07 1014.00 1013.92 1013.81 1013.69 1013.57 1013.48 1013.43 1013.44 1013.52 1013.69 1013.92 1014.19
1013.28 1013.31 1013.27 1013.17 1013.05 1012.94 1012.87 1012.87 1012.95 1013.10 1013.29 1013.50 1013.68 1013.82 1013.91 1013.95 1013.96 1013.95 1013.96 1013.98 1014.02 1014.08 1014.14 1014.19 1014.21 1014.21 1014.17 1014.11 1014.03 1013.93 1013.81 1013.68 1013.54 1013.39 1013.25 1013.12 1013.03 1012.99 1013.02 1013.12 1013.30 1013.54 1013.83
1013.52 1013.54 1013.52 1013.45 1013.36 1013.28 1013.25 1013.29 1013.39 1013.57 1013.78 1014.01 1014.20 1014.34 1014.42 1014.43 1014.38 1014.31 1014.24 1014.18 1014.14 1014.13 1014.13 1014.14 1014.14 1014.12 1014.07 1013.98 1013.86 1013.71 1013.54 1013.35 1013.15 1012.96 1012.79 1012.65 1012.56 1012.53 1012.57 1012.69 1012.88 1013.14 1013.45
1013.76 1013.79 1013.79 1013.75 1013.71 1013.68 1013.69 1013.75 1013.88 1014.07 1014.30 1014.52 1014.72 1014.87 1014.93 1014.92 1014.84 1014.72 1014.57 1014.43 1014.32 1014.23 1014.18 1014.14 1014.10 1014.05 1013.97 1013.85 1013.69 1013.50 1013.27 1013.03 1012.78 1012.55 1012.34 1012.18 1012.08 1012.05 1012.10 1012.22 1012.43 1012.71 1013.04
1014.02 1014.07 1014.11 1014.12 1014.13 1014.14 1014.19 1014.27 1014.41 1014.60 1014.82 1015.05 1015.24 1015.39 1015.45 1015.44 1015.34 1015.18 1014.99 1014.79 1014.61 1014.45 1014.33 1014.23 1014.14 1014.05 1013.93 1013.77 1013.57 1013.33 1013.05 1012.76 1012.46 1012.17 1011.93 1011.73 1011.61 1011.57 1011.61 1011.74 1011.96 1012.26 1012.62
1014.34 1014.41 1014.48 1014.55 1014.61 1014.67 1014.74 1014.84 1014.97 1015.15 1015.35 1015.56 1015.75 1015.89 1015.97 1015.97 1015.88 1015.71 1015.50 1015.26 1015.03 1014.81 1014.62 1014.45 1014.30 1014.15 1013.99 1013.79 1013.54 1013.25 1012.92 1012.57 1012.22 1011.88 1011.59 1011.36 1011.20 1011.13 1011.16 1011.28 1011.51 1011.81 1012.20
1014.68 1014.79 1014.90 1015.02 1015.13 1015.23 1015.32 1015.42 1015.53 1015.68 1015.85 1016.04 1016.22 1016.38 1016.48 1016.50 1016.44 1016.30 1016.09 1015.84 1015.56 1015.30 1015.04 1014.81 1014.60 1014.39 1014.16 1013.91 1013.62 1013.28 1012.91 1012.51 1012.10 1011.72 1011.37 1011.09 1010.90 1010.79 1010.79 1010.90 1011.11 1011.42 1011.81
1015.05 1015.19 1015.35 1015.51 1015.66 1015.78 1015.89 1015.98 1016.07 1016.18 1016.32 1016.48 1016.66 1016.82 1016.95 1017.02 1017.00 1016.90 1016.71 1016.47 1016.18 1015.87 1015.57 1015.28 1015.00 1014.72 1014.45 1014.14 1013.80 1013.43 1013.01 1012.57 1012.13 1011.70 1011.31 1010.98 1010.74 1010.60 1010.56 1010.63 1010.82 1011.11 1011.50
1015.42 1015.58 1015.78 1015.97 1016.16 1016.30 1016.41 1016.48 1016.55 1016.63 1016.73 1016.88 1017.05 1017.23 1017.39 1017.50 1017.53 1017.48 1017.33 1017.09 1016.80 1016.47 1016.13 1015.78 1015.45 1015.12 1014.80 1014.45 1014.08 1013.67 1013.23 1012.77 1012.29 1011.83 1011.41 1011.05 1010.76 1010.58 1010.49 1010.53 1010.68 1010.94 1011.30
1015.76 1015.94 1016.16 1016.39 1016.59 1016.75 1016.86 1016.92 1016.97 1017.02 1017.10 1017.23 1017.40 1017.59 1017.77 1017.92 1018.00 1017.98 1017.87 1017.65 1017.36 1017.02 1016.65 1016.27 1015.90 1015.53 1015.17 1014.80 1014.41 1013.98 1013.53 1013.06 1012.57 1012.09 1011.65 1011.26 1010.95 1010.73 1010.60 1010.59 1010.69 1010.90 1011.21
1016.05 1016.25 1016.48 1016.73 1016.94 1017.11 1017.23 1017.29 1017.33 1017.37 1017.44 1017.55 1017.71 1017.91 1018.11 1018.28 1018.38 1018.39 1018.30 1018.10 1017.82 1017.47 1017.08 1016.69 1016.29 1015.91 1015.53 1015.15 1014.75 1014.33 1013.87 1013.40 1012.92 1012.44 1011.99 1011.59 1011.26 1011.01 1010.85 1010.80 1010.84 1010.99 1011.23
1016.26 1016.48 1016.73 1016.98 1017.21 1017.39 1017.52 1017.59 1017.64 1017.68 1017.74 1017.85 1018.01 1018.20 1018.40 1018.57 1018.68 1018.70 1018.61 1018.42 1018.14 1017.80 1017.42 1017.02 1016.63 1016.24 1015.87 1015.49 1015.09 1014.67 1014.23 1013.77 1013.29 1012.82 1012.38 1011.99 1011.65 1011.39 1011.20 1011.10 1011.09 1011.17 1011.33
1016.38 1016.61 1016.87 1017.14 1017.39 1017.59 1017.74 1017.83 1017.90 1017.95 1018.03 1018.14 1018.28 1018.46 1018.64 1018.80 1018.89 1018.90 1018.81 1018.62 1018.36 1018.03 1017.67 1017.29 1016.92 1016.56 1016.19 1015.82 1015.44 1015.03 1014.59 1014.14 1013.67 1013.22 1012.79 1012.40 1012.07 1011.81 1011.60 1011.47 1011.41 1011.42 1011.49
1016.40 1016.65 1016.92 1017.21 1017.47 1017.70 1017.88 1018.01 1018.11 1018.19 1018.29 1018.40 1018.54 1018.70 1018.86 1018.98 1019.05 1019.04 1018.94 1018.76 1018.51 1018.21 1017.89 1017.55 1017.22 1016.89 1016.55 1016.20 1015.82 1015.41 1014.98 1014.52 1014.05 1013.60 1013.19 1012.81 1012.49 1012.23 1012.02 1011.87 1011.76 1011.70 1011.69
1016.32 1016.59 1016.88 1017.18 1017.47 1017.73 1017.95 1018.13 1018.27 1018.39 1018.51 1018.64 1018.77 1018.91 1019.04 1019.13 1019.17 1019.14 1019.03 1018.87 1018.65 1018.40 1018.13 1017.86 1017.58 1017.29 1016.98 1016.65 1016.27 1015.85 1015.40 1014.93 1014.45 1014.00 1013.58 1013.22 1012.92 1012.66 1012.45 1012.28 1012.14 1012.02 1011.93
1016.15 1016.44 1016.75 1017.07 1017.39 1017.68 1017.94 1018.17 1018.36 1018.53 1018.68 1018.83 1018.97 1019.09 1019.20 1019.26 1019.28 1019.23 1019.14 1019.00 1018.83 1018.64 1018.45 1018.24 1018.03 1017.79 1017.52 1017.20 1016.82 1016.38 1015.90 1015.39 1014.89 1014.42 1014.00 1013.64 1013.35 1013.10 1012.90 1012.71 1012.54 1012.37 1012.20
1015.92 1016.22 1016.55 1016.89 1017.24 1017.56 1017.87 1018.14 1018.38 1018.59 1018.78 1018.95 1019.10 1019.23 1019.32 1019.38 1019.39 1019.35 1019.28 1019.18 1019.07 1018.96 1018.85 1018.72 1018.58 1018.40 1018.16 1017.84 1017.45 1016.98 1016.47 1015.93 1015.39 1014.90 1014.47 1014.11 1013.82 1013.58 1013.37 1013.18 1012.98 1012.76 1012.53
1015.65 1015.97 1016.31 1016.67 1017.04 1017.39 1017.73 1018.04 1018.32 1018.58 1018.81 1019.01 1019.18 1019.32 1019.42 1019.47 1019.50 1019.48 1019.45 1019.41 1019.37 1019.34 1019.31 1019.26 1019.19 1019.05 1018.84 1018.54 1018.13 1017.64 1017.10 1016.52 1015.96 1015.44 1015.00 1014.63 1014.34 1014.11 1013.90 1013.69 1013.46 1013.20 1012.91
1015.38 1015.71 1016.06 1016.43 1016.80 1017.17 1017.54 1017.88 1018.20 1018.49 1018.76 1019.00 1019.19 1019.35 1019.47 1019.55 1019.60 1019.62 1019.64 1019.65 1019.68 1019.72 1019.77 1019.79 1019.78 1019.69 1019.51 1019.21 1018.81 1018.31 1017.74 1017.15 1016.57 1016.04 1015.59 1015.22 1014.93 1014.69 1014.47 1014.25 1013.99 1013.68 1013.33
1015.11 1015.45 1015.80 1016.17 1016.55 1016.93 1017.30 1017.67 1018.02 1018.34 1018.64 1018.91 1019.14 1019.34 1019.49 1019.60 1019.68 1019.74 1019.81 1019.88 1019.96 1020.07 1020.17 1020.25 1020.28 1020.23 1020.08 1019.81 1019.41 1018.92 1018.36 1017.77 1017.19 1016.66 1016.21 1015.85 1015.56 1015.31 1015.08 1014.83 1014.54 1014.18 1013.77
1014.84 1015.18 1015.53 1015.90 1016.28 1016.66 1017.03 1017.41 1017.78 1018.13 1018.46 1018.76 1019.03 1019.26 1019.45 1019.60 1019.72 1019.83 1019.93 1020.05 1020.18 1020.32 1020.46 1020.58 1020.64 1020.63 1020.50 1020.26 1019.90 1019.44 1018.90 1018.34 1017.79 1017.29 1016.86 1016.50 1016.20 1015.95 1015.69 1015.41 1015.07 1014.67 1014.20
1014.55 1014.89 1015.24 1015.60 1015.97 1016.35 1016.73 1017.11 1017.49 1017.86 1018.22 1018.56 1018.86 1019.13 1019.37 1019.56 1019.72 1019.87 1020.00 1020.14 1020.30 1020.46 1020.62 1020.76 1020.85 1020.86 1020.77 1020.56 1020.25 1019.84 1019.36 1018.86 1018.36 1017.89 1017.49 1017.14 1016.84 1016.56 1016.28 1015.96 1015.57 1015.12 1014.59
1014.20 1014.54 1014.89 1015.25 1015.61 1015.99 1016.37 1016.75 1017.14 1017.54 1017.92 1018.29 1018.64 1018.96 1019.23 1019.47 1019.67 1019.85 1020.01 1020.17 1020.34 1020.51 1020.67 1020.82 1020.92 1020.95 1020.89 1020.74 1020.48 1020.14 1019.74 1019.31 1018.87 1018.46 1018.08 1017.75 1017.44 1017.14 1016.82 1016.45 1016.02 1015.51 1014.94
1013.76 1014.11 1014.46 1014.82 1015.19 1015.57 1015.95 1016.34 1016.75 1017.16 1017.57 1017.98 1018.37 1018.73 1019.05 1019.33 1019.57 1019.78 1019.97 1020.15 1020.32 1020.49 1020.65 1020.80 1020.91 1020.96 1020.94 1020.84 1020.65 1020.39 1020.07 1019.71 1019.34 1018.98 1018.63 1018.30 1017.98 1017.65 1017.29 1016.88 1016.40 1015.86 1015.26
1013.23 1013.59 1013.96 1014.33 1014.71 1015.09 1015.48 1015.89 1016.31 1016.74 1017.19 1017.63 1018.06 1018.46 1018.83 1019.16 1019.45 1019.69 1019.90 1020.09 1020.28 1020.45 1020.61 1020.77 1020.89 1020.97 1020.99 1020.94 1020.82 1020.63 1020.39 1020.10 1019.79 1019.47 1019.14 1018.81 1018.47 1018.11 1017.70 1017.25 1016.74 1016.16 1015.54
1012.64 1013.01 1013.40 1013.79 1014.18 1014.58 1014.99 1015.41 1015.85 1016.31 1016.78 1017.26 1017.73 1018.18 1018.59 1018.97 1019.30 1019.58 1019.83 1020.04 1020.24 1020.43 1020.61 1020.77 1020.91 1021.02 1021.08 1021.09 1021.03 1020.90 1020.72 1020.49 1020.23 1019.93 1019.61 1019.27 1018.91 1018.51 1018.07 1017.58 1017.04 1016.45 1015.83
Thickness
5740 5738 5737 5736 5735 5734 5734 5734 5733 5733 5733 5732 5732 5732 5732 5732 5732 5731 5731 5732 5732 5731 5730 5729 5729 5728 5726 5725 5723 5722 5721 5720 5719 5718 5717 5716 5715 5713 5713 5712 5711 5710 5709
5738 5737 5735 5734 5733 5733 5733 5732 5732 5732 5731 5731 5730 5730 5730 5730 5729 5729 5729 5730 5730 5730 5729 5729 5728 5727 5725 5723 5722 5721 5720 5719 5717 5716 5715 5715 5714 5713 5712 5710 5709 5708 5707
5737 5735 5734 5732 5732 5731 5731 5730 5730 5730 5730 5729 5728 5728 5727 5727 5727 5727 5727 5727 5727 5727 5728 5727 5727 5726 5724 5723 5721 5720 5718 5717 5716 5715 5715 5714 5713 5712 5711 5709 5708 5706 5705
5736 5734 5732 5731 5730 5729 5729 5728 5728 5727 5726 5725 5725 5724 5724 5724 5724 5724 5725 5725 5725 5725 5725 5725 5725 5724 5723 5722 5720 5719 5718 5716 5715 5714 5714 5714 5713 5712 5710 5708 5706 5705 5703
5734 5732 5731 5730 5729 5728 5727 5727 5725 5724 5723 5722 5721 5721 5721 5721 5721 5722 5722 5722 5722 5722 5722 5722 5722 5721 5721 5720 5719 5718 5717 5716 5714 5713 5713 5713 5712 5710 5708 5706 5705 5703 5702
5732 5730 5729 5728 5727 5725 5724 5724 5722 5722 5720 5719 5719 5718 5718 5719 5719 5719 5719 5719 5719 5719 5719 5719 5719 5718 5719 5718 5718 5717 5715 5714 5713 5712 5712 5711 5710 5709 5707 5705 5703 5701 5700
5730 5728 5727 5726 5724 5723 5722 5722 5720 5719 5717 5717 5715 5713 5714 5716 5716 5717 5717 5717 5717 5717 5716 5716 5716 5716 5716 5716 5715 5715 5714 5713 5711 5710 5709 5708 5707 5706 5704 5703 5701 5700 5698
5728 5726 5725 5723 5722 5721 5720 5719 5718 5716 5714 5713 5711 5708 5706 5708 5711 5714 5714 5714 5714 5714 5714 5713 5713 5713 5713 5713 5712 5712 5711 5710 5709 5708 5707 5706 5705 5703 5702 5701 5699 5698 5696
5726 5725 5723 5722 5720 5719 5717 5716 5716 5714 5711 5710 5710 5707 5702 5700 5703 5707 5709 5710 5710 5710 5710 5710 5710 5710 5710 5710 5709 5708 5707 5707 5706 5705 5705 5703 5702 5701 5700 5699 5698 5696 5695
5723 5722 5720 5719 5717 5716 5715 5714 5713 5712 5711 5707 5706 5706 5705 5704 5700 5699 5703 5705 5706 5706 5707 5708 5708 5708 5707 5706 5706 5705 5704 5704 5703 5702 5701 5700 5699 5698 5697 5697 5696 5694 5692
5719 5718 5717 5716 5714 5713 5712 5712 5711 5710 5709 5706 5704 5702 5701 5700 5699 5696 5695 5698 5700 5703 5704 5704 5704 5704 5704 5704 5703 5702 5702 5700 5700 5699 5698 5697 5696 5695 5694 5693 5693 5691 5690
5715 5715 5714 5712 5711 5710 5709 5709 5708 5707 5706 5704 5702 5701 5699 5697 5695 5693 5692 5692 5693 5697 5699 5700 5701 5701 5701 5700 5700 5699 5698 5697 5696 5695 5694 5693 5692 5691 5690 5689 5689 5688 5687
5710 5711 5710 5708 5707 5707 5706 5706 5705 5703 5702 5701 5700 5698 5697 5696 5695 5693 5691 5689 5689 5691 5694 5696 5697 5697 5697 5697 5696 5695 5695 5694 5692 5691 5690 5689 5688 5687 5686 5685 5684 5683 5682
5708 5708 5707 5706 5705 5704 5703 5702 5700 5700 5699 5697 5697 5696 5694 5694 5692 5691 5690 5687 5685 5685 5688 5690 5692 5693 5693 5693 5693 5692 5691 5690 5689 5688 5687 5685 5684 5683 5681 5680 5680 5679 5678
5704 5704 5703 5702 5701 5700 5699 5698 5696 5695 5694 5693 5693 5692 5691 5691 5690 5689 5688 5686 5683 5680 5682 5685 5686 5688 5688 5689 5689 5688 5687 5687 5686 5684 5683 5682 5680 5679 5677 5676 5675 5674 5673
5699 5699 5698 5697 5697 5696 5694 5693 5692 5692 5690 5689 5689 5688 5687 5687 5686 5685 5684 5683 5682 5680 5678 5680 5680 5681 5682 5683 5683 5683 5683 5682 5681 5680 5679 5678 5676 5675 5673 5672 5671 5670 5669
5694 5694 5693 5693 5692 5691 5690 5689 5688 5687 5686 5685 5684 5683 5683 5682 5681 5680 5679 5678 5676 5675 5674 5675 5675 5675 5676 5677 5677 5677 5677 5677 5676 5675 5674 5673 5672 5671 5670 5668 5667 5666 5665
5689 5689 5688 5688 5687 5686 5685 5684 5682 5682 5680 5679 5679 5678 5678 5677 5676 5675 5674 5673 5672 5670 5669 5668 5669 5669 5670 5670 5670 5671 5671 5671 5671 5670 5669 5668 5667 5667 5665 5664 5663 5662 5661
5684 5684 5683 5682 5681 5680 5679 5679 5677 5676 5675 5675 5674 5674 5673 5672 5670 5670 5669 5668 5667 5666 5664 5663 5663 5663 5663 5664 5663 5664 5664 5664 5664 5664 5663 5663 5662 5662 5661 5660 5659 5658 5657
5679 5678 5678 5676 5675 5674 5673 5673 5672 5671 5670 5669 5669 5669 5669 5668 5667 5666 5664 5663 5662 5660 5658 5657 5657 5656 5656 5656 5656 5656 5656 5656 5657 5657 5656 5656 5656 5656 5655 5655 5654 5653 5652
5673 5672 5671 5670 5669 5668 5668 5667 5666 5665 5664 5663 5663 5663 5663 5663 5663 5662 5660 5659 5657 5654 5653 5652 5651 5649 5649 5649 5650 5650 5649 5649 5649 5649 5649 5650 5650 5649 5649 5649 5648 5648 5647
5667 5666 5665 5664 5663 5663 5662 5661 5660 5658 5658 5657 5657 5657 5657 5657 5657 5656 5655 5654 5652 5650 5648 5647 5645 5644 5644 5644 5643 5643 5642 5642 5642 5642 5642 5643 5642 5642 5642 5643 5643 5642 5642
5661 5659 5659 5657 5657 5657 5656 5655 5654 5653 5652 5651 5651 5651 5651 5651 5651 5650 5649 5648 5646 5646 5645 5643 5641 5640 5639 5639 5637 5636 5635 5636 5636 5636 5635 5636 5636 5636 5636 5636 5636 5636 5636
5654 5654 5652 5652 5651 5651 5650 5649 5648 5647 5646 5646 5646 5645 5645 5644 5644 5643 5642 5641 5640 5639 5639 5638 5637 5637 5635 5635 5633 5631 5630 5629 5629 5628 5627 5628 5628 5628 5629 5628 5629 5629 5629
5648 5648 5647 5646 5645 5645 5644 5643 5642 5641 5640 5640 5640 5639 5638 5638 5638 5636 5635 5634 5634 5634 5633 5633 5632 5632 5631 5630 5628 5625 5623 5622 5623 5623 5621 5620 5621 5621 5621 5622 5622 5621 5621
5642 5642 5641 5640 5639 5639 5638 5637 5635 5635 5633 5632 5632 5633 5633 5632 5631 5629 5628 5628 5627 5628 5627 5627 5626 5625 5624 5623 5622 5620 5619 5617 5617 5617 5616 5613 5614 5612 5614 5615 5614 5614 5613